Time,TemperatureF,DewpointF,PressureIn,WindDirection,WindDirectionDegrees,WindSpeedMPH,WindSpeedGustMPH,Humidity,HourlyPrecipIn,Conditions,Clouds,dailyrainin,SoftwareType,DateUTC
2013-04-04 00:07:00,46.5,24.0,30.15,East,86,4.0,10.0,42,0.00,,,0.00,weatherlink.com 1.10,2013-04-04 05:07:00,
2013-04-04 00:22:00,46.3,25.0,30.14,ENE,76,5.0,9.0,43,0.00,,,0.00,weatherlink.com 1.10,2013-04-04 05:22:00,
2013-04-04 00:37:00,46.1,25.0,30.14,East,88,4.0,10.0,43,0.00,,,0.00,weatherlink.com 1.10,2013-04-04 05:37:00,
2013-04-04 00:52:00,46.0,25.0,30.14,ESE,102,5.0,13.0,44,0.00,,,0.00,weatherlink.com 1.10,2013-04-04 05:52:00,
2013-04-04 01:07:00,46.0,24.0,30.13,East,79,4.0,10.0,43,0.00,,,0.00,weatherlink.com 1.10,2013-04-04 06:07:00,
2013-04-04 01:22:00,45.9,24.0,30.12,ENE,68,6.0,11.0,42,0.00,,,0.00,weatherlink.com 1.10,2013-04-04 06:22:00,
2013-04-04 01:37:00,45.8,25.0,30.11,East,92,5.0,12.0,44,0.00,,,0.00,weatherlink.com 1.10,2013-04-04 06:37:00,
2013-04-04 01:52:00,45.6,24.0,30.11,East,87,8.0,12.0,43,0.00,,,0.00,weatherlink.com 1.10,2013-04-04 06:52:00,
2013-04-04 02:07:00,45.4,24.0,30.10,ENE,64,7.0,8.0,44,0.00,,,0.00,weatherlink.com 1.10,2013-04-04 07:07:00,
2013-04-04 02:22:00,45.1,25.0,30.10,ESE,111,6.0,9.0,45,0.00,,,0.00,weatherlink.com 1.10,2013-04-04 07:22:00,
2013-04-04 02:37:00,45.0,25.0,30.10,ENE,57,5.0,8.0,45,0.00,,,0.00,weatherlink.com 1.10,2013-04-04 07:37:00,
2013-04-04 02:52:00,45.0,24.0,30.08,East,84,2.0,11.0,44,0.00,,,0.00,weatherlink.com 1.10,2013-04-04 07:52:00,
2013-04-04 03:07:00,44.7,25.0,30.08,ENE,61,4.0,9.0,46,0.00,,,0.00,weatherlink.com 1.10,2013-04-04 08:07:00,
2013-04-04 03:22:00,44.6,25.0,30.08,East,86,8.0,11.0,46,0.00,,,0.00,weatherlink.com 1.10,2013-04-04 08:22:00,
2013-04-04 03:37:00,44.6,25.0,30.08,East,91,7.0,9.0,46,0.00,,,0.00,weatherlink.com 1.10,2013-04-04 08:37:00,
2013-04-04 03:52:00,44.5,25.0,30.07,East,86,4.0,9.0,46,0.00,,,0.00,weatherlink.com 1.10,2013-04-04 08:52:00,
2013-04-04 04:07:00,44.4,25.0,30.07,ENE,78,5.0,9.0,46,0.00,,,0.00,weatherlink.com 1.10,2013-04-04 09:07:00,
2013-04-04 04:22:00,44.3,25.0,30.07,ENE,60,4.0,8.0,46,0.00,,,0.00,weatherlink.com 1.10,2013-04-04 09:22:00,
2013-04-04 04:37:00,44.1,24.0,30.07,ENE,64,7.0,8.0,46,0.00,,,0.00,weatherlink.com 1.10,2013-04-04 09:37:00,
2013-04-04 04:52:00,44.0,25.0,30.07,NE,53,2.0,7.0,48,0.00,,,0.00,weatherlink.com 1.10,2013-04-04 09:52:00,
2013-04-04 05:07:00,43.9,26.0,30.07,ENE,68,5.0,6.0,49,0.00,,,0.00,weatherlink.com 1.10,2013-04-04 10:07:00,
2013-04-04 05:23:00,43.8,25.0,30.07,ENE,57,5.0,8.0,48,0.00,,,0.00,weatherlink.com 1.10,2013-04-04 10:23:00,
2013-04-04 05:37:00,43.8,26.0,30.06,East,86,4.0,9.0,49,0.00,,,0.00,weatherlink.com 1.10,2013-04-04 10:37:00,
2013-04-04 05:52:00,43.6,26.0,30.06,East,93,4.0,8.0,51,0.00,,,0.00,weatherlink.com 1.10,2013-04-04 10:52:00,
2013-04-04 06:07:00,43.2,26.0,30.06,ENE,76,4.0,9.0,52,0.00,,,0.00,weatherlink.com 1.10,2013-04-04 11:07:00,
2013-04-04 06:23:00,42.4,28.0,30.06,ENE,65,5.0,9.0,58,0.00,,,0.00,weatherlink.com 1.10,2013-04-04 11:23:00,
2013-04-04 06:38:00,41.8,29.0,30.06,East,81,1.0,8.0,60,0.00,,,0.00,weatherlink.com 1.10,2013-04-04 11:38:00,
2013-04-04 06:53:00,41.5,30.0,30.07,ENE,59,1.0,6.0,63,0.00,,,0.00,weatherlink.com 1.10,2013-04-04 11:53:00,
2013-04-04 07:08:00,41.4,31.0,30.07,NE,55,1.0,6.0,66,0.01,,,0.01,weatherlink.com 1.10,2013-04-04 12:08:00,
2013-04-04 07:23:00,41.2,31.0,30.07,NE,42,2.0,6.0,66,0.01,,,0.01,weatherlink.com 1.10,2013-04-04 12:23:00,
2013-04-04 07:38:00,40.8,32.0,30.07,NE,42,0.0,4.0,71,0.01,,,0.01,weatherlink.com 1.10,2013-04-04 12:38:00,
2013-04-04 07:53:00,40.9,32.0,30.07,NNE,28,1.0,4.0,71,0.01,,,0.01,weatherlink.com 1.10,2013-04-04 12:53:00,
2013-04-04 08:08:00,41.2,32.0,30.07,NNE,28,0.0,4.0,70,0.01,,,0.02,weatherlink.com 1.10,2013-04-04 13:08:00,
2013-04-04 08:23:00,41.0,33.0,30.07,NNE,28,0.0,4.0,72,0.01,,,0.02,weatherlink.com 1.10,2013-04-04 13:23:00,
2013-04-04 08:38:00,41.0,33.0,30.07,East,81,1.0,5.0,73,0.01,,,0.02,weatherlink.com 1.10,2013-04-04 13:38:00,
2013-04-04 08:53:00,41.0,33.0,30.06,ENE,77,5.0,5.0,74,0.02,,,0.03,weatherlink.com 1.10,2013-04-04 13:53:00,
2013-04-04 09:08:00,40.5,34.0,30.07,ENE,61,0.0,6.0,77,0.02,,,0.04,weatherlink.com 1.10,2013-04-04 14:08:00,
2013-04-04 09:23:00,40.4,35.0,30.07,ENE,63,3.0,4.0,81,0.03,,,0.05,weatherlink.com 1.10,2013-04-04 14:23:00,
2013-04-04 09:38:00,40.5,36.0,30.07,East,80,6.0,6.0,83,0.03,,,0.05,weatherlink.com 1.10,2013-04-04 14:38:00,
2013-04-04 09:53:00,40.3,35.0,30.07,ENE,60,4.0,7.0,81,0.03,,,0.06,weatherlink.com 1.10,2013-04-04 14:53:00,
2013-04-04 10:08:00,40.4,35.0,30.07,ENE,68,2.0,7.0,81,0.03,,,0.07,weatherlink.com 1.10,2013-04-04 15:08:00,
2013-04-04 10:23:00,40.4,35.0,30.07,ENE,67,4.0,6.0,82,0.03,,,0.08,weatherlink.com 1.10,2013-04-04 15:23:00,
2013-04-04 10:38:00,40.3,36.0,30.07,East,79,1.0,6.0,84,0.03,,,0.08,weatherlink.com 1.10,2013-04-04 15:38:00,
2013-04-04 10:53:00,40.4,37.0,30.07,ENE,78,0.0,5.0,86,0.03,,,0.09,weatherlink.com 1.10,2013-04-04 15:53:00,
2013-04-04 11:08:00,40.7,38.0,30.07,ENE,78,0.0,2.0,88,0.02,,,0.09,weatherlink.com 1.10,2013-04-04 16:08:00,
2013-04-04 11:23:00,40.6,38.0,30.07,East,93,1.0,4.0,89,0.03,,,0.11,weatherlink.com 1.10,2013-04-04 16:23:00,
2013-04-04 11:38:00,40.7,38.0,30.06,ENE,74,3.0,4.0,90,0.06,,,0.14,weatherlink.com 1.10,2013-04-04 16:38:00,
2013-04-04 11:54:00,41.0,38.0,30.06,East,82,0.0,5.0,90,0.05,,,0.14,weatherlink.com 1.10,2013-04-04 16:54:00,
2013-04-04 12:38:00,41.8,39.0,30.05,East,87,0.0,6.0,91,0.01,,,0.15,weatherlink.com 1.10,2013-04-04 17:38:00,
2013-04-04 12:54:00,42.4,40.0,30.04,East,90,1.0,4.0,92,0.01,,,0.15,weatherlink.com 1.10,2013-04-04 17:54:00,
2013-04-04 13:09:00,43.2,41.0,30.04,East,80,5.0,6.0,91,0.00,,,0.15,weatherlink.com 1.10,2013-04-04 18:09:00,
2013-04-04 13:24:00,44.2,42.0,30.03,ENE,77,4.0,6.0,91,0.00,,,0.15,weatherlink.com 1.10,2013-04-04 18:24:00,
2013-04-04 13:39:00,45.1,42.0,30.03,NE,40,3.0,7.0,89,0.00,,,0.15,weatherlink.com 1.10,2013-04-04 18:39:00,
2013-04-04 13:54:00,46.0,43.0,30.02,ESE,103,1.0,5.0,90,0.00,,,0.15,weatherlink.com 1.10,2013-04-04 18:54:00,
2013-04-04 14:24:00,46.9,44.0,30.01,NE,55,3.0,6.0,88,0.00,,,0.15,weatherlink.com 1.10,2013-04-04 19:24:00,
2013-04-04 14:39:00,47.3,44.0,30.01,NE,46,4.0,6.0,88,0.00,,,0.15,weatherlink.com 1.10,2013-04-04 19:39:00,
2013-04-04 15:02:00,47.4,44.0,30.00,NE,48,1.0,5.0,87,0.00,,,0.15,weatherlink.com 1.10,2013-04-04 20:02:00,
2013-04-04 15:09:00,47.5,44.0,29.99,NNE,28,2.0,6.0,87,0.00,,,0.15,weatherlink.com 1.10,2013-04-04 20:09:00,
2013-04-04 15:24:00,46.4,44.0,29.99,North,5,4.0,6.0,90,0.01,,,0.16,weatherlink.com 1.10,2013-04-04 20:24:00,
2013-04-04 15:39:00,46.1,44.0,29.99,North,11,5.0,5.0,92,0.01,,,0.16,weatherlink.com 1.10,2013-04-04 20:39:00,
2013-04-04 15:54:00,45.7,43.0,29.99,North,351,4.0,7.0,91,0.01,,,0.16,weatherlink.com 1.10,2013-04-04 20:54:00,
2013-04-04 16:09:00,45.6,44.0,29.98,NNW,336,4.0,7.0,92,0.01,,,0.16,weatherlink.com 1.10,2013-04-04 21:09:00,
2013-04-04 16:24:00,45.7,44.0,29.98,North,360,5.0,7.0,92,0.01,,,0.17,weatherlink.com 1.10,2013-04-04 21:24:00,
2013-04-04 16:39:00,46.3,44.0,29.98,North,5,5.0,6.0,92,0.01,,,0.17,weatherlink.com 1.10,2013-04-04 21:39:00,
2013-04-04 16:54:00,46.7,44.0,29.98,NNE,12,2.0,6.0,90,0.01,,,0.17,weatherlink.com 1.10,2013-04-04 21:54:00,
2013-04-04 17:09:00,46.8,44.0,29.98,North,9,2.0,5.0,90,0.01,,,0.17,weatherlink.com 1.10,2013-04-04 22:09:00,
2013-04-04 17:24:00,47.2,44.0,29.98,North,9,0.0,4.0,89,0.00,,,0.17,weatherlink.com 1.10,2013-04-04 22:24:00,
2013-04-04 17:39:00,47.3,44.0,29.98,North,9,4.0,4.0,88,0.00,,,0.17,weatherlink.com 1.10,2013-04-04 22:39:00,
2013-04-04 17:54:00,47.4,44.0,29.98,North,9,0.0,5.0,88,0.00,,,0.17,weatherlink.com 1.10,2013-04-04 22:54:00,
2013-04-04 18:09:00,47.3,44.0,29.98,North,10,0.0,5.0,88,0.00,,,0.17,weatherlink.com 1.10,2013-04-04 23:09:00,
2013-04-04 18:24:00,47.3,44.0,29.99,North,10,1.0,5.0,88,0.00,,,0.17,weatherlink.com 1.10,2013-04-04 23:24:00,
2013-04-04 18:39:00,47.3,44.0,29.99,North,10,0.0,2.0,88,0.00,,,0.17,weatherlink.com 1.10,2013-04-04 23:39:00,
2013-04-04 18:54:00,47.3,44.0,29.99,North,10,0.0,2.0,89,0.00,,,0.17,weatherlink.com 1.10,2013-04-04 23:54:00,
2013-04-04 19:09:00,47.1,44.0,29.99,North,10,0.0,1.0,90,0.00,,,0.17,weatherlink.com 1.10,2013-04-05 00:09:00,
2013-04-04 19:24:00,46.7,44.0,29.99,North,10,1.0,1.0,91,0.00,,,0.17,weatherlink.com 1.10,2013-04-05 00:24:00,
2013-04-04 19:39:00,46.5,44.0,29.99,NNE,19,1.0,6.0,92,0.01,,,0.18,weatherlink.com 1.10,2013-04-05 00:39:00,
2013-04-04 19:54:00,46.3,44.0,29.99,NNE,22,1.0,4.0,91,0.01,,,0.18,weatherlink.com 1.10,2013-04-05 00:54:00,
2013-04-04 20:09:00,46.2,44.0,29.99,NNE,22,0.0,0.0,92,0.01,,,0.18,weatherlink.com 1.10,2013-04-05 01:09:00,
2013-04-04 20:24:00,46.1,44.0,29.99,NNE,22,0.0,1.0,91,0.00,,,0.18,weatherlink.com 1.10,2013-04-05 01:24:00,
2013-04-04 20:39:00,46.1,44.0,30.00,NNE,22,0.0,0.0,93,0.00,,,0.18,weatherlink.com 1.10,2013-04-05 01:39:00,
2013-04-04 20:54:00,45.9,44.0,30.00,NNE,22,0.0,0.0,94,0.00,,,0.18,weatherlink.com 1.10,2013-04-05 01:54:00,
2013-04-04 21:09:00,45.7,44.0,30.00,NNE,22,0.0,1.0,95,0.00,,,0.18,weatherlink.com 1.10,2013-04-05 02:09:00,
2013-04-04 21:24:00,45.8,45.0,30.00,NNE,22,0.0,0.0,95,0.00,,,0.18,weatherlink.com 1.10,2013-04-05 02:24:00,
2013-04-04 21:39:00,45.6,44.0,30.00,NNE,22,0.0,1.0,95,0.00,,,0.18,weatherlink.com 1.10,2013-04-05 02:39:00,
2013-04-04 21:54:00,45.8,45.0,30.00,NNE,22,0.0,1.0,95,0.00,,,0.18,weatherlink.com 1.10,2013-04-05 02:54:00,
2013-04-04 22:09:00,45.8,44.0,30.00,NNE,22,0.0,0.0,94,0.00,,,0.18,weatherlink.com 1.10,2013-04-05 03:09:00,
2013-04-04 22:24:00,45.6,44.0,30.00,NNE,22,0.0,1.0,95,0.00,,,0.18,weatherlink.com 1.10,2013-04-05 03:24:00,
2013-04-04 22:39:00,45.5,44.0,30.00,NNE,22,0.0,0.0,95,0.00,,,0.18,weatherlink.com 1.10,2013-04-05 03:39:00,
2013-04-04 22:54:00,45.3,44.0,30.00,NNE,22,0.0,0.0,95,0.00,,,0.18,weatherlink.com 1.10,2013-04-05 03:54:00,
2013-04-04 23:09:00,45.2,44.0,30.00,NNE,22,0.0,0.0,96,0.00,,,0.18,weatherlink.com 1.10,2013-04-05 04:09:00,
2013-04-04 23:24:00,45.0,44.0,30.00,NNE,22,0.0,0.0,96,0.00,,,0.18,weatherlink.com 1.10,2013-04-05 04:24:00,
2013-04-04 23:39:00,44.9,44.0,30.01,NNE,22,0.0,1.0,96,0.00,,,0.18,weatherlink.com 1.10,2013-04-05 04:39:00,
2013-04-04 23:54:00,45.1,44.0,30.01,NNE,22,0.0,0.0,96,0.00,,,0.18,weatherlink.com 1.10,2013-04-05 04:54:00,